EW6246 Weather Reports


time (UTC)temp
C
wind
direction
speed
KPH
gust
KPH
rain 1hr
cm
rain 24hr
cm
rain mn
cm
humidity
%
barometer
mb
20260505113524 21 304 0.0 0.0 0.00 0.00 0.00 89 1018.5
20260505113020 21 304 0.0 0.0 0.00 0.00 0.00 90 1018.6
20260505112516 21 306 0.0 0.0 0.00 0.00 0.00 90 1018.4
20260505112014 21 306 0.0 0.0 0.00 0.00 0.00 91 1018.4
20260505111508 20 291 0.0 0.0 0.00 0.00 0.00 90 1018.7
20260505111004 20 301 0.0 0.0 0.00 0.00 0.00 91 1018.7
20260505110501 20 306 0.0 0.0 0.00 0.00 0.00 92 1018.5
20260505101927 18 309 0.0 0.0 0.00 0.00 0.00 95 1017.9
20260505101426 18 332 1.6 1.6 0.00 0.00 0.00 95 1017.8
20260505100922 18 311 1.6 1.6 0.00 0.00 0.00 96 1017.6
20260505100420 18 307 0.0 0.0 0.00 0.00 0.00 96 1017.4
20260505095915 18 314 0.0 0.0 0.00 0.00 0.00 97 1017.7
20260505095413 18 310 0.0 0.0 0.00 0.00 0.00 97 1017.7
20260505094908 18 310 0.0 1.6 0.00 0.00 0.00 97 1017.6
20260505094406 18 267 1.6 1.6 0.00 0.00 0.00 97 1017.6
20260505093901 18 310 0.0 0.0 0.00 0.00 0.00 97 1017.6
20260505093359 18 300 0.0 0.0 0.00 0.00 0.00 97 1017.7
20260505092856 18 293 0.0 0.0 0.00 0.00 0.00 97 1017.5
20260505092354 18 299 0.0 0.0 0.00 0.00 0.00 97 1017.4
20260505091851 18 300 0.0 0.0 0.00 0.00 0.00 97 1017.6
20260505091349 18 308 0.0 0.0 0.00 0.00 0.00 97 1017.3
20260505090847 18 302 0.0 0.0 0.00 0.00 0.00 97 1017.6
20260505090345 18 300 0.0 0.0 0.00 0.00 0.00 97 1017.7
20260505085841 18 294 0.0 0.0 0.00 0.00 0.00 97 1017.7
20260505085339 18 308 0.0 0.0 0.00 0.00 0.00 97 1017.4
20260505084837 18 308 0.0 0.0 0.00 0.00 0.00 97 1017.7
20260505084335 18 308 0.0 0.0 0.00 0.00 0.00 97 1017.6
20260505083832 18 308 0.0 0.0 0.00 0.00 0.00 97 1017.7
20260505083330 18 308 0.0 1.6 0.00 0.00 0.00 97 1017.5
20260505082826 18 309 1.6 1.6 0.00 0.00 0.00 97 1017.7
20260505082322 18 308 0.0 0.0 0.00 0.00 0.00 97 1017.5
20260505081819 18 308 0.0 0.0 0.00 0.00 0.00 97 1017.6
20260505081316 18 308 1.6 1.6 0.00 0.00 0.00 97 1017.5
20260505080812 18 290 0.0 0.0 0.00 0.00 0.00 96 1017.8
20260505080308 18 319 0.0 1.6 0.00 0.00 0.00 96 1017.7
20260505075804 18 300 0.0 1.6 0.00 0.00 0.00 96 1017.6
20260505075304 18 308 0.0 0.0 0.00 0.00 0.00 96 1017.6
20260505074758 19 311 0.0 0.0 0.00 0.00 0.00 96 1017.3
20260505074255 18 299 0.0 0.0 0.00 0.00 0.00 96 1017.4
20260505073753 19 292 0.0 0.0 0.00 0.00 0.00 95 1017.2
20260505073251 19 308 0.0 0.0 0.00 0.00 0.00 95 1017.3
20260505072747 19 272 1.6 1.6 0.00 0.00 0.00 95 1017.5
20260505072243 19 293 0.0 1.6 0.00 0.00 0.00 96 1017.4
20260505071739 19 321 1.6 1.6 0.00 0.00 0.00 96 1017.3
20260505071236 19 291 0.0 0.0 0.00 0.00 0.00 96 1017.4
20260505070734 19 305 0.0 0.0 0.00 0.00 0.00 96 1017.3
20260505070230 19 295 0.0 0.0 0.00 0.00 0.00 96 1017.3
20260505065726 19 305 0.0 0.0 0.00 0.00 0.00 96 1017.3
20260505065223 19 299 0.0 0.0 0.00 0.00 0.00 96 1017.7
20260505064720 19 304 0.0 0.0 0.00 0.00 0.00 95 1017.5
20260505064218 19 281 0.0 0.0 0.00 0.00 0.00 95 1017.5
20260505063715 19 299 0.0 0.0 0.00 0.00 0.00 96 1017.5
20260505063211 19 305 0.0 0.0 0.00 0.00 0.00 96 1017.5
20260505062707 19 305 0.0 0.0 0.00 0.00 0.00 95 1017.5
20260505062205 19 295 0.0 0.0 0.00 0.00 0.00 95 1017.5
20260505061701 19 312 1.6 1.6 0.00 0.00 0.00 95 1017.6
20260505061200 19 308 0.0 0.0 0.00 0.00 0.00 95 1017.6
20260505060657 19 313 1.6 1.6 0.00 0.00 0.00 95 1017.5
20260505060154 19 284 1.6 1.6 0.00 0.00 0.00 95 1017.6
20260505055649 19 299 0.0 1.6 0.00 0.00 0.00 95 1017.9
20260505055146 20 306 0.0 0.0 0.00 0.00 0.00 95 1017.8
20260505054643 20 295 0.0 1.6 0.00 0.00 0.00 94 1017.9
20260505054141 20 319 1.6 1.6 0.00 0.00 0.00 94 1018.0
20260505053639 20 289 0.0 0.0 0.00 0.00 0.00 94 1018.0
20260505053135 20 289 0.0 0.0 0.00 0.00 0.00 94 1017.8
20260505052632 20 304 0.0 0.0 0.00 0.00 0.00 94 1018.0
20260505052129 20 292 0.0 1.6 0.00 0.00 0.00 94 1018.3
20260505051626 20 289 0.0 0.0 0.00 0.00 0.00 94 1017.9
20260505051124 20 298 1.6 1.6 0.00 0.00 0.00 94 1018.2
20260505050621 20 297 0.0 0.0 0.00 0.00 0.00 93 1018.1
20260505050120 20 294 0.0 0.0 0.00 0.00 0.00 93 1018.4
20260505041549 20 304 1.6 1.6 0.00 0.00 0.00 92 1019.0
20260505041047 20 287 0.0 0.0 0.00 0.00 0.00 91 1019.0
20260505040544 20 287 0.0 1.6 0.00 0.00 0.00 91 1018.7
20260505040041 20 287 0.0 0.0 0.00 0.00 0.00 92 1019.0
20260505035537 20 287 0.0 1.6 0.00 0.00 0.00 92 1018.9
20260505035034 20 287 0.0 0.0 0.00 0.00 0.00 92 1019.1
20260505034530 20 287 0.0 0.0 0.00 0.00 0.00 91 1019.2
20260505034027 20 287 0.0 0.0 0.00 0.00 0.00 91 1019.1
20260505033524 20 307 1.6 1.6 0.00 0.00 0.00 92 1019.3
20260505033022 20 308 0.0 0.0 0.00 0.00 0.00 93 1019.2
20260505032520 20 329 0.0 0.0 0.00 0.00 0.00 93 1019.4
20260505032016 20 304 0.0 0.0 0.00 0.00 0.00 93 1019.3
20260505031514 20 304 0.0 0.0 0.00 0.00 0.00 93 1019.3
20260505031010 19 304 0.0 0.0 0.00 0.00 0.00 93 1019.4
20260505030507 19 305 0.0 0.0 0.00 0.00 0.00 93 1019.5
20260505030002 20 308 0.0 0.0 0.00 0.00 0.00 93 1019.4
20260505025459 19 314 0.0 0.0 0.00 0.00 0.00 93 1019.6
20260505024958 19 311 0.0 0.0 0.00 0.00 0.00 93 1019.4
20260505024454 19 311 1.6 1.6 0.00 0.00 0.00 93 1019.3
20260505023951 19 311 0.0 0.0 0.00 0.00 0.00 94 1019.5
20260505023448 19 310 0.0 0.0 0.00 0.00 0.00 93 1019.6
20260505022946 19 310 0.0 1.6 0.00 0.00 0.00 93 1019.3
20260505022443 19 311 0.0 0.0 0.00 0.00 0.00 93 1019.2
20260505021941 19 311 0.0 0.0 0.00 0.00 0.00 93 1019.2
20260505021437 19 311 0.0 0.0 0.00 0.00 0.00 93 1019.2
20260505020932 19 311 0.0 0.0 0.00 0.00 0.00 93 1019.1
20260505020428 19 309 0.0 0.0 0.00 0.00 0.00 93 1019.2
20260505015925 19 304 0.0 0.0 0.00 0.00 0.00 93 1019.1
20260505015422 20 307 0.0 0.0 0.00 0.00 0.00 93 1019.0
20260505014920 20 309 0.0 0.0 0.00 0.00 0.00 93 1018.9
20260505014416 20 302 0.0 0.0 0.00 0.00 0.00 93 1019.0
20260505013913 20 302 0.0 0.0 0.00 0.00 0.00 93 1019.0
20260505013410 20 306 0.0 0.0 0.00 0.00 0.00 93 1018.9
20260505012908 20 308 0.0 1.6 0.00 0.00 0.00 93 1018.7
20260505012406 20 300 0.0 0.0 0.00 0.00 0.00 92 1018.9
20260505011902 20 300 1.6 1.6 0.00 0.00 0.00 91 1018.6
20260505011359 20 334 1.6 1.6 0.00 0.00 0.00 91 1018.2
20260505010855 20 311 0.0 0.0 0.00 0.00 0.00 92 1018.3
20260505010351 20 299 0.0 0.0 0.00 0.00 0.00 91 1018.1
20260505005847 20 309 0.0 0.0 0.00 0.00 0.00 91 1018.2
20260505005344 21 306 0.0 0.0 0.00 0.00 0.00 91 1018.1
20260505004842 21 315 0.0 0.0 0.00 0.00 0.00 91 1018.1
20260505004338 21 304 0.0 1.6 0.00 0.00 0.00 91 1018.1
20260505003835 21 306 0.0 0.0 0.00 0.00 0.00 88 1018.2
20260505003332 22 289 0.0 0.0 0.00 0.00 0.00 86 1018.2
20260505002828 22 287 1.6 1.6 0.00 0.00 0.00 85 1018.0
20260505002325 22 264 1.6 1.6 0.00 0.00 0.00 87 1018.2
20260505001824 22 285 0.0 0.0 0.00 0.00 0.00 87 1018.2
20260505001320 21 275 1.6 1.6 0.00 0.00 0.00 88 1018.2
20260505000818 22 289 0.0 0.0 0.00 0.00 0.00 88 1018.1
20260505000315 22 309 0.0 0.0 0.00 0.00 0.00 89 1018.2
20260504235812 22 295 0.0 0.0 0.00 0.00 0.00 88 1018.0
20260504235309 22 295 0.0 0.0 0.00 0.00 0.00 87 1018.1
20260504234805 22 19 3.2 3.2 0.00 0.00 0.00 88 1018.2
20260504234303 22 40 1.6 1.6 0.00 0.00 0.00 87 1018.0
20260504233759 22 316 1.6 1.6 0.00 0.00 0.00 88 1017.9
20260504233255 22 298 0.0 1.6 0.00 0.00 0.00 87 1018.0
20260504232752 22 311 0.0 0.0 0.00 0.00 0.00 88 1017.9
20260504232249 22 275 0.0 1.6 0.00 0.00 0.00 87 1018.1
20260504231746 22 87 1.6 1.6 0.00 0.00 0.00 87 1018.0
20260504231243 22 88 0.0 1.6 0.00 0.00 0.00 86 1017.9
20260504230738 22 84 1.6 1.6 0.00 0.00 0.00 85 1018.1
20260504230237 22 353 3.2 3.2 0.00 0.00 0.00 84 1017.9
20260504225735 22 318 0.0 1.6 0.00 0.00 0.00 85 1018.1
20260504225231 22 312 1.6 1.6 0.00 0.00 0.00 86 1017.9
20260504224729 22 287 0.0 1.6 0.00 0.00 0.00 85 1017.9
20260504224226 22 287 0.0 0.0 0.00 0.00 0.00 86 1017.8
20260504223722 23 294 0.0 0.0 0.00 0.00 0.00 85 1017.6
20260504223217 23 325 1.6 1.6 0.00 0.00 0.00 83 1017.6
20260504222715 23 220 3.2 3.2 0.00 0.00 0.00 83 1017.5
20260504222212 23 282 1.6 3.2 0.00 0.00 0.00 82 1017.4
20260504221709 23 282 0.0 0.0 0.00 0.00 0.00 84 1017.3
20260504221206 23 293 1.6 1.6 0.00 0.00 0.00 85 1017.2
20260504220702 23 301 0.0 1.6 0.00 0.00 0.00 84 1017.3
20260504220200 23 104 3.2 4.8 0.00 0.00 0.00 83 1017.2
20260504215656 23 348 3.2 3.2 0.00 0.00 0.00 83 1017.2
20260504215154 23 272 3.2 4.8 0.00 0.00 0.00 84 1017.3
20260504214649 23 252 1.6 3.2 0.00 0.00 0.00 87 1016.7
20260504214146 23 275 3.2 3.2 0.00 0.00 0.00 86 1017.0
20260504213643 23 273 0.0 0.0 0.00 0.00 0.00 85 1017.0
20260504213139 23 266 0.0 0.0 0.00 0.00 0.00 85 1017.0
20260504212636 23 294 4.8 8.0 0.00 0.00 0.00 85 1016.9
20260504212132 23 283 0.0 1.6 0.00 0.00 0.00 85 1016.9
20260504211630 23 265 0.0 0.0 0.00 0.00 0.00 85 1017.0
20260504211126 23 258 1.6 1.6 0.00 0.00 0.00 84 1016.9
20260504210624 24 271 3.2 3.2 0.00 0.00 0.00 83 1016.7
20260504210120 24 298 1.6 3.2 0.00 0.00 0.00 82 1016.6
20260504205618 23 273 0.0 1.6 0.00 0.00 0.00 81 1016.6
20260504205115 24 283 3.2 4.8 0.00 0.00 0.00 82 1016.9
20260504204614 23 261 1.6 1.6 0.00 0.00 0.00 84 1016.6
20260504204112 23 269 0.0 1.6 0.00 0.00 0.00 85 1016.6
20260504203611 25 302 0.0 1.6 0.00 0.00 0.00 82 1016.7
20260504203108 25 258 1.6 1.6 0.00 0.00 0.00 79 1016.5
20260504202603 24 258 4.8 4.8 0.00 0.00 0.00 79 1016.6
20260504202100 24 258 0.0 0.0 0.00 0.00 0.00 83 1016.7
20260504201557 24 258 4.8 8.0 0.00 0.00 0.00 84 1016.5
20260504201055 24 258 1.6 3.2 0.00 0.00 0.00 80 1016.4
20260504200551 25 258 1.6 3.2 0.00 0.00 0.00 83 1016.4
20260504200048 26 282 1.6 1.6 0.00 0.00 0.00 77 1016.4
20260504195544 25 260 4.8 4.8 0.00 0.00 0.00 80 1016.6
20260504195040 25 258 4.8 4.8 0.00 0.00 0.00 81 1016.4
20260504194537 25 258 1.6 1.6 0.00 0.00 0.00 79 1016.6
20260504194032 26 277 0.0 1.6 0.00 0.00 0.00 76 1016.6
20260504193529 25 264 0.0 0.0 0.00 0.00 0.00 76 1016.7
20260504193028 25 258 3.2 4.8 0.00 0.00 0.00 78 1017.0
20260504192526 25 258 1.6 3.2 0.00 0.00 0.00 80 1016.9
20260504192024 25 258 3.2 3.2 0.00 0.00 0.00 81 1017.1
20260504191521 26 261 9.7 11.3 0.00 0.00 0.00 77 1017.2
20260504191017 25 258 0.0 1.6 0.00 0.00 0.00 77 1016.7
20260504190513 26 258 4.8 4.8 0.00 0.00 0.00 78 1016.9
20260504190009 26 258 0.0 0.0 0.00 0.00 0.00 77 1016.7
20260504185507 25 258 0.0 0.0 0.00 0.00 0.00 76 1017.1
20260504185004 25 258 3.2 3.2 0.00 0.00 0.00 76 1017.2
20260504184459 26 269 4.8 9.7 0.00 0.00 0.00 72 1017.1
20260504183954 25 258 1.6 1.6 0.00 0.00 0.00 78 1017.1
20260504183452 26 258 4.8 8.0 0.00 0.00 0.00 75 1017.2
20260504182950 26 258 3.2 3.2 0.00 0.00 0.00 76 1017.2
20260504182446 25 258 0.0 1.6 0.00 0.00 0.00 78 1017.4
20260504181944 26 258 1.6 1.6 0.00 0.00 0.00 76 1017.4
20260504181441 26 258 4.8 4.8 0.00 0.00 0.00 75 1017.5
20260504180939 26 258 8.0 11.3 0.00 0.00 0.00 77 1017.3
20260504180438 26 258 1.6 1.6 0.00 0.00 0.00 72 1017.3
20260504175936 26 258 1.6 3.2 0.00 0.00 0.00 74 1017.4
20260504175433 26 258 3.2 3.2 0.00 0.00 0.00 74 1017.4
20260504174930 26 258 6.4 9.7 0.00 0.00 0.00 71 1017.5
20260504174427 26 258 4.8 8.0 0.00 0.00 0.00 72 1018.0
20260504173925 26 258 3.2 3.2 0.00 0.00 0.00 71 1017.7
20260504173421 26 258 4.8 4.8 0.00 0.00 0.00 71 1017.6
20260504172919 27 258 8.0 11.3 0.00 0.00 0.00 69 1018.0
20260504172415 27 258 1.6 1.6 0.00 0.00 0.00 68 1017.7
20260504171911 27 258 0.0 1.6 0.00 0.00 0.00 65 1017.9
20260504171409 26 258 0.0 0.0 0.00 0.00 0.00 71 1017.9
20260504170905 26 258 0.0 1.6 0.00 0.00 0.00 68 1017.9
20260504170402 26 258 1.6 1.6 0.00 0.00 0.00 67 1017.8
20260504160321 27 258 6.4 9.7 0.00 0.00 0.00 67 1018.3
20260504150745 26 258 3.2 4.8 0.00 0.00 0.00 70 1018.9
20260504150242 26 258 1.6 3.2 0.00 0.00 0.00 72 1018.4
20260504141212 26 302 1.6 1.6 0.00 0.00 0.00 70 1018.9
20260504140708 26 256 4.8 8.0 0.00 0.00 0.00 72 1018.2
20260504140203 26 228 4.8 4.8 0.00 0.00 0.00 70 1018.5
20260504130632 26 291 0.0 1.6 0.00 0.00 0.00 72 1018.5
20260504130129 26 65 4.8 4.8 0.00 0.00 0.00 69 1018.4